Location: Dattensoll
(49.9928°N, 9.8954°E)
Time: 21:12:12
(UTC+00:00)

Terra - Pass Details

Date: 19 May 2025
Orbit: 690 x 692 km, 98.0° (Epoch: 15 June)

Event Time Altitude Azimuth Distance (km) Brightness Sun altitude
Exits shadow 20:50:06 - 195° (SSW) 2,499 4.3 -12.9°
Reaches altitude 10° 20:51:05 10° 200° (SSW) 2,139 4.0 -13.0°
Maximum altitude 20:55:18 33° 264° (W) 1,153 3.2 -13.4°
Drops below altitude 10° 20:59:35 10° 329° (NNW) 2,154 5.8 -13.7°
Sets 21:02:02 0° 339° (NNW) 3,076 6.9 -13.9°
